Location: Hanover
(52.3667°N, 9.7167°E)
Time: 03:28:38
(UTC+02:00)

ARIANE 6 FM1 Upper Stage - Pass Details

Date: 20 September 2024
Orbit: 564 x 594 km, 62.0° (Epoch: 06 October)

Event Time Altitude Azimuth Distance (km) Brightness Sun altitude
Exits shadow 06:09:27 - 295° (WNW) 2,281 5.3 -9.1°
Reaches altitude 10° 06:10:34 10° 287° (WNW) 1,936 4.9 -8.9°
Maximum altitude 06:13:44 20° 240° (WSW) 1,407 4.1 -8.5°
Drops below altitude 10° 06:16:53 10° 194° (SSW) 1,929 5.1 -8.0°
Sets 06:19:36 0° 177° (S) 2,826 6.2 -7.6°
